Regional Weather Roundup
Issued by NWS

Home | Current Version | Previous Version | Graphics & Text | Print | Product List | Glossary On
Versions: 1 2 3 4 5 6 7 8 9 10 11 12 13 14 15 16 17 18 19 20 21 22 23 24 25 26 27 28 29 30 31 32 33 34 35 36 37 38 39 40 41 42 43 44 45 46 47 48 49 50
000
ASUS43 KFSD 021210
RWRSD

WEATHER ROUNDUP FOR SOUTH DAKOTA
NATIONAL WEATHER SERVICE SIOUX FALLS SD
700 AM CDT MON MAY 02 2016

NOTE: "FAIR" INDICATES FEW OR NO CLOUDS BELOW 12,000 FEET WITH NO
SIGNIFICANT WEATHER AND/OR OBSTRUCTIONS TO VISIBILITY.


SDZ001>005-009-010-012>017-021300-
NORTHWEST AND NORTH CENTRAL SOUTH DAKOTA

CITY           SKY/WX    TMP DP  RH WIND       PRES   REMARKS
BUFFALO          N/A     39  31  72 W9        30.06F
FAITH            N/A     43  31  62 W7        30.10F
MOBRIDGE       PTCLDY    44  36  73 CALM      30.06S
$$

SDZ012>016-024>037-041>051-057-063-072>074-021300-
SOUTHWEST AND SOUTH CENTRAL SOUTH DAKOTA

CITY           SKY/WX    TMP DP  RH WIND       PRES   REMARKS
RAPID CTY ARPT CLEAR     36  29  75 W10       30.15F
PIERRE         PTCLDY    38  33  82 SW7       30.12F
CUSTER         CLEAR     28  22  78 NW7       30.18F WCI  21
ELLSWORTH AFB  CLEAR     38  30  71 W10       30.15S
PHILIP         PTCLDY    35  32  88 W12       30.14F WCI  27
PINE RIDGE     CLEAR     25  21  85 CALM      30.18F
WINNER         FAIR      41  31  67 SW3       30.15F
$$

SDZ004>011-016>023-039-040-021300-
NORTHEAST SOUTH DAKOTA

CITY           SKY/WX    TMP DP  RH WIND       PRES   REMARKS
ABERDEEN       MOCLDY    37  33  85 SE3       30.10S
WATERTOWN      MOCLDY    36  32  85 CALM      30.11R
BROOKINGS      CLOUDY    35  34  96 CALM      30.11S
SISSETON         N/A     50  33  52 W13       30.07S
$$

SDZ017-020-022-023-036>040-048>070-021300-
SOUTHEAST SOUTH DAKOTA

CITY           SKY/WX    TMP DP  RH WIND       PRES   REMARKS
SIOUX FALLS    PTCLDY    34  33  96 CALM      30.14R
HURON          CLOUDY    39  34  82 MISG      30.11F
CHAMBERLAIN    CLEAR     38  36  91 W5        30.15S
MITCHELL       CLEAR     40  35  83 CALM      30.14S
YANKTON        CLEAR     37  32  81 W3        30.15R
$$

ABBREVIATIONS USED IN REMARKS
   TC - TEMPERATURE IN CELSIUS
  WCI - WIND CHILL INDEX
   HX - HEAT INDEX
  VSB - VISIBILITY





USA.gov is the U.S. government's official web portal to all federal, state and local government web resources and services.